CEB803 RPLL-WSSS

Flight info

Callsign CEB803
Flight time N/A
Altitude 36000
Route BUCAL2R BUCAL M646 TOKON M767 TOMAN KARTO2A
Aircraft A21N/M-SDE3FGHIRWY/LB1

Departure

Time 2026-05-05 16:42
Airport Ninoy Aquino International Airport (RPLL)

Arrival

Time N/A
Airport Singapore Changi Airport (WSSS)
Time Latitude Longitude Altitude Speed Heading
2026-05-05 16:05 14.51895 121.01271 84 ft 0 kts 45°
2026-05-05 16:24 14.51881 121.01257 84 ft 2 kts 45°
2026-05-05 16:25 14.51871 121.01246 84 ft 2 kts 45°
2026-05-05 16:25 14.51849 121.01224 84 ft 2 kts 47°
2026-05-05 16:25 14.51843 121.01210 84 ft 2 kts 81°
2026-05-05 16:26 14.51849 121.01182 84 ft 0 kts 131°
2026-05-05 16:26 14.51855 121.01176 84 ft 0 kts 136°
2026-05-05 16:30 14.51854 121.01176 84 ft 0 kts 136°
2026-05-05 16:30 14.51852 121.01180 84 ft 1 kts 136°
2026-05-05 16:30 14.51841 121.01191 84 ft 3 kts 135°
2026-05-05 16:31 14.51816 121.01216 84 ft 6 kts 135°
2026-05-05 16:31 14.51775 121.01259 84 ft 10 kts 134°
2026-05-05 16:31 14.51719 121.01319 84 ft 13 kts 135°
2026-05-05 16:31 14.51648 121.01391 84 ft 15 kts 136°
2026-05-05 16:32 14.51565 121.01475 84 ft 17 kts 134°
2026-05-05 16:32 14.51476 121.01569 84 ft 20 kts 135°
2026-05-05 16:32 14.51362 121.01687 84 ft 23 kts 134°
2026-05-05 16:32 14.51252 121.01801 84 ft 21 kts 135°
2026-05-05 16:33 14.51187 121.01868 84 ft 7 kts 135°
2026-05-05 16:33 14.51151 121.01905 84 ft 7 kts 135°
2026-05-05 16:33 14.51123 121.01934 84 ft 0 kts 135°
2026-05-05 16:34 14.51122 121.01936 84 ft 1 kts 135°
2026-05-05 16:34 14.51085 121.01973 84 ft 7 kts 135°
2026-05-05 16:34 14.51043 121.01982 84 ft 7 kts 221°
2026-05-05 16:34 14.51013 121.01936 84 ft 7 kts 237°
2026-05-05 16:35 14.50983 121.01887 84 ft 8 kts 240°
2026-05-05 16:35 14.50948 121.01822 84 ft 12 kts 240°
2026-05-05 16:35 14.50905 121.01743 84 ft 12 kts 240°
2026-05-05 16:35 14.50847 121.01639 84 ft 23 kts 240°
2026-05-05 16:36 14.50753 121.01470 84 ft 27 kts 240°
2026-05-05 16:36 14.50661 121.01303 84 ft 26 kts 240°
2026-05-05 16:36 14.50573 121.01144 84 ft 25 kts 239°
2026-05-05 16:36 14.50479 121.00978 84 ft 27 kts 240°
2026-05-05 16:37 14.50385 121.00813 84 ft 25 kts 238°
2026-05-05 16:37 14.50301 121.00656 84 ft 24 kts 240°
2026-05-05 16:37 14.50219 121.00509 84 ft 23 kts 240°
2026-05-05 16:37 14.50140 121.00366 84 ft 23 kts 240°
2026-05-05 16:38 14.50055 121.00213 84 ft 26 kts 240°
2026-05-05 16:38 14.49967 121.00053 84 ft 24 kts 240°
2026-05-05 16:38 14.49910 120.99972 84 ft 2 kts 207°
2026-05-05 16:38 14.49904 120.99970 84 ft 0 kts 198°
2026-05-05 16:40 14.49903 120.99970 84 ft 0 kts 198°
2026-05-05 16:40 14.49870 120.99969 84 ft 12 kts 165°
2026-05-05 16:41 14.49806 121.00016 84 ft 10 kts 111°
2026-05-05 16:41 14.49825 121.00088 84 ft 14 kts 60°
2026-05-05 16:41 14.49961 121.00334 84 ft 75 kts 60°
2026-05-05 16:41 14.50339 121.01007 84 ft 138 kts 60°
2026-05-05 16:42 14.50905 121.02023 213 ft 177 kts 63°
2026-05-05 16:42 14.51499 121.03097 860 ft 176 kts 64°
2026-05-05 16:42 14.52102 121.04227 1464 ft 183 kts 64°
2026-05-05 16:42 14.52695 121.05376 2095 ft 187 kts 65°
2026-05-05 16:43 14.53345 121.06596 2533 ft 197 kts 63°
2026-05-05 16:43 14.54042 121.07812 2952 ft 204 kts 61°
2026-05-05 16:43 14.54820 121.09077 3422 ft 210 kts 59°
2026-05-05 16:43 14.55646 121.10332 3927 ft 213 kts 58°
2026-05-05 16:44 14.56449 121.11632 4296 ft 222 kts 64°
2026-05-05 16:44 14.56863 121.13177 4567 ft 230 kts 97°
2026-05-05 16:44 14.56248 121.14701 4773 ft 241 kts 133°
2026-05-05 16:44 14.55027 121.15947 5157 ft 255 kts 140°
2026-05-05 16:45 14.53676 121.17220 5552 ft 270 kts 140°
2026-05-05 16:45 14.52307 121.18550 6191 ft 275 kts 139°
2026-05-05 16:45 14.50934 121.19934 6893 ft 279 kts 138°
2026-05-05 16:45 14.49547 121.21353 7506 ft 286 kts 138°
2026-05-05 16:46 14.48104 121.22792 8172 ft 289 kts 144°
2026-05-05 16:46 14.46346 121.23692 8775 ft 288 kts 172°
2026-05-05 16:46 14.44367 121.23670 9402 ft 285 kts 198°
2026-05-05 16:46 14.42633 121.22767 10008 ft 283 kts 223°
2026-05-05 16:47 14.41271 121.21308 10528 ft 290 kts 231°
2026-05-05 16:47 14.39913 121.19711 10848 ft 305 kts 231°
2026-05-05 16:47 14.38503 121.18055 11369 ft 312 kts 231°
2026-05-05 16:47 14.37061 121.16379 11976 ft 316 kts 231°
2026-05-05 16:48 14.35586 121.14678 12578 ft 320 kts 231°
2026-05-05 16:48 14.34101 121.12972 13214 ft 323 kts 230°
2026-05-05 16:48 14.32600 121.11252 13857 ft 325 kts 230°
2026-05-05 16:48 14.31095 121.09534 14442 ft 328 kts 230°
2026-05-05 16:49 14.29506 121.07744 14890 ft 337 kts 228°
2026-05-05 16:49 14.27802 121.06078 15415 ft 343 kts 222°
2026-05-05 16:49 14.25915 121.04568 15981 ft 347 kts 217°
2026-05-05 16:49 14.23934 121.03153 16541 ft 350 kts 216°
2026-05-05 16:50 14.21923 121.01746 17087 ft 354 kts 216°
2026-05-05 16:50 14.19876 121.00316 17629 ft 357 kts 216°
2026-05-05 16:50 14.17803 120.98863 18167 ft 360 kts 216°
2026-05-05 16:50 14.15740 120.97413 18689 ft 363 kts 216°
2026-05-05 16:51 14.13647 120.95940 19203 ft 365 kts 216°
2026-05-05 16:51 14.11538 120.94455 19706 ft 368 kts 216°
2026-05-05 16:51 14.09409 120.92956 20194 ft 371 kts 215°
2026-05-05 16:51 14.07281 120.91457 20663 ft 374 kts 215°
2026-05-05 16:52 14.05123 120.89936 21128 ft 377 kts 215°
2026-05-05 16:52 14.02936 120.88396 21585 ft 379 kts 215°
2026-05-05 16:52 14.00770 120.86870 22026 ft 382 kts 215°
2026-05-05 16:52 13.98583 120.85331 22461 ft 385 kts 215°
2026-05-05 16:53 13.96355 120.83764 22892 ft 387 kts 215°
2026-05-05 16:53 13.94149 120.82212 23304 ft 390 kts 215°
2026-05-05 16:53 13.91898 120.80630 23714 ft 392 kts 215°
2026-05-05 16:53 13.89655 120.79054 24115 ft 394 kts 215°